Flag for Austria Weather past 2 weeks in Güssing, Burgenland, Austria

Now
74 °F

Fog.


Feels Like: 74 °F
Forecast: 60 / 79 °F
Wind: 2 mph from Northeast

Location: Murska Sobota

Current Time: Jul 28, 2014 at 2:53:01 PM

Latest Report: Jul 28, 2014 at 2:00 PM


Visibility: 5 mi

Pressure: 29.85 "Hg

Humidity: 79%

Dew point: 67 °F

Location of GüssingLocation

Historic Weather in Güssing — Graph

°F

Güssing temperature yesterday

Maximum temperature yesterday: 78 °F (at 2:00 PM)
Minimum temperature yesterday: 63 °F (at 4:00 AM)
Average temperature yesterday: 69 °F

Past Weeks' High & Low Weather Summary

 TemperatureHumidityPressure
High88 °F (Jul 20, 4:00 PM)100% (Jul 27, 5:00 AM)30.10 "Hg (Jul 27, 5:00 AM)
Low56 °F (Jul 24, 6:00 AM)37% (Jul 17, 2:00 PM)29.73 "Hg (Jul 21, 9:00 AM)
Average72 °F76%29.93 "Hg
* Reported Jul 13 1:00 PM — Jul 28 1:00 PM, Güssing, Weather by CustomWeather, © 2014

Note: Actual official high and low records may vary slightly from our data, if they occured in-between our weather recording intervals... More about our weather records

Advertising

Güssing weather history for previous 24 hours

 ConditionsComfort  
Time TempWeatherWind HumidityBarometerVisibility
1:00 PM
Jul 28
73 °FFog.2 mph78%29.86 "Hg5 mi
12:00 PM71 °FOvercast.2 mph84%29.87 "Hg5 mi
11:00 AM70 °FLight rain. Overcast.2 mph90%29.88 "Hg4 mi
10:00 AM69 °FDrizzle. Overcast.2 mph90%29.88 "Hg4 mi
9:00 AM68 °FFog.2 mph93%29.88 "Hg4 mi
8:00 AM67 °FFog.1 mph95%29.88 "Hg4 mi
7:00 AM67 °FOvercast.1 mph97%29.87 "Hg6 mi
6:00 AM66 °FOvercast.2 mph97%29.86 "Hg6 mi
5:00 AM66 °FOvercast.1 mph98%29.87 "Hg6 mi
4:00 AM66 °FMild.1 mph98%29.87 "HgN/A
3:00 AM66 °FMild.2 mph98%29.88 "HgN/A
2:00 AM67 °FMild.2 mph97%29.88 "HgN/A
1:00 AM67 °FMild.1 mph95%29.90 "HgN/A
12:00 AM67 °FMild.5 mph96%29.90 "HgN/A
11:00 PM
Jul 27
69 °FMild.2 mph92%29.90 "HgN/A
10:00 PM70 °FMild.2 mph89%29.90 "HgN/A
9:00 PM71 °FMild.1 mph87%29.89 "HgN/A
8:00 PM73 °FPartly sunny.3 mph79%29.87 "Hg6 mi
7:00 PM77 °FWarm.2 mph67%29.86 "HgN/A
6:00 PM77 °FMild.5 mph72%29.86 "HgN/A
5:00 PM76 °FMild.3 mph75%29.87 "HgN/A
4:00 PM76 °FMild.3 mph76%29.88 "HgN/A
3:00 PM77 °FThunderstorms. Partly sunny.3 mph67%29.88 "Hg6 mi
2:00 PM78 °FPartly sunny.2 mph65%29.89 "Hg6 mi
Weather by CustomWeather, © 2014

See weather overviewHow to use our weather pages